This is the latest recevied weather packets stored in our database for station/object OE3MHU-12. If no packets are shown the sender has not sent any weather packets the latest 10 day(s).
| Time | Temp. | Humidity | Pressure | Rain* | Wind** | Luminosity | Snow |
|---|---|---|---|---|---|---|---|
| 1788626565 | 22.22° C | 52% | 1018.5 hPa | 0 mm | - | - | - |
| 1788624765 | 22.22° C | 51% | 1018.2 hPa | 0 mm | - | - | - |
| 1788621166 | 22.78° C | 50% | 1018 hPa | 0 mm | - | - | - |
| 1788619366 | 22.78° C | 51% | 1018 hPa | 0 mm | - | - | - |
| 1788617566 | 22.78° C | 51% | 1018 hPa | 0 mm | - | - | - |
| 1788615766 | 23.33° C | 51% | 1018.2 hPa | 0 mm | - | - | - |
| 1788613966 | 23.89° C | 51% | 1018.2 hPa | 0 mm | - | - | - |
| 1788612166 | 23.89° C | 52% | 1018.2 hPa | 0 mm | - | - | - |
| 1788610366 | 24.44° C | 51% | 1018.3 hPa | 0 mm | - | - | - |
| 1788608566 | 22.78° C | 58% | 1018.4 hPa | 0 mm | - | - | - |
| 1788606766 | 22.78° C | 57% | 1018.3 hPa | 0 mm | - | - | - |
| 1788604966 | 22.22° C | 59% | 1018.4 hPa | 0 mm | - | - | - |
| 1788603166 | 22.78° C | 57% | 1018.2 hPa | 0 mm | - | - | - |
| 1788601367 | 22.22° C | 62% | 1018.3 hPa | 0 mm | - | - | - |
| 1788599567 | 21.11° C | 70% | 1018.4 hPa | 0 mm | - | - | - |
| 1788592367 | 15° C | 85% | 1017.1 hPa | 0.51 mm | - | - | - |
| 1788590567 | 15° C | 83% | 1017.7 hPa | 0.51 mm | - | - | - |
| 1788588767 | 15.56° C | 82% | 1017 hPa | 0.51 mm | - | - | - |
| 1788586967 | 16.11° C | 80% | 1018.2 hPa | 0 mm | - | - | - |
| 1788585464 | 16.11° C | 77% | 1017.1 hPa | 0 mm | - | - | - |
| 1788585167 | 16.11° C | 77% | 1017.1 hPa | 0 mm | - | - | - |
| 1788583367 | 17.22° C | 75% | 1016.5 hPa | 0 mm | - | - | - |
| 1788581568 | 17.78° C | 68% | 1015.8 hPa | 0 mm | - | - | - |
| 1788579768 | 18.33° C | 66% | 1015.5 hPa | 0 mm | - | - | - |
| 1788577968 | 18.89° C | 64% | 1014.4 hPa | 0 mm | - | - | - |
* Rain latest hour (hover to see other rain measurements)
** Current wind speed in m/s (hover to see current wind gust speed)